Location: Goettingen
(51.5300°N, 9.9433°E)
Time: 05:51:13
(UTC+02:00)

ISS - Pass Details

Date: 30 March 2020
Orbit: 417 x 423 km, 51.6° (Epoch: 29 March)

Event Time Altitude Azimuth Distance (km) Brightness Sun altitude
Rises 20:55:02 0° 280° (W) 2,362 2.0 -10.5°
Reaches altitude 10° 20:57:08 10° 279° (W) 1,497 0.5 -10.8°
Maximum altitude 21:00:29 74° 195° (SSW) 438 -3.7 -11.3°
Enters shadow 21:02:43 19° 111° (ESE) 1,049 -2.4 -11.6°
